This demonstration page uses our WeatherBlox Daily Observations layout. Learn more.

40.92945, -100.16068

Hourly Observations for December 21, 2015

Temp ( °F °C ) Dew Point ( °F °C ) Humidity (%) Winds ( mph kmh ) Pressure ( in mb ) Visibility ( mi km ) Precip ( " mm )
12:15 am 00:15 Cloudy 32 -0.1 29 -1.8 88 88 NW 14 22 29.88 1012 10 16.0934 N/A
12:35 am 00:35 Cloudy 32 -0.1 29 -1.8 88 88 NNW 13 20 29.88 1012 10 16.0934 N/A
12:55 am 00:55 Cloudy 32 -0.1 29 -1.7 89 89 NNW 14 22 29.88 1012 10 16.0934 N/A
1:15 am 01:15 Cloudy 32 -0.1 29 -1.6 90 90 N 14 22 29.88 1012 10 16.0934 N/A
1:35 am 01:35 Cloudy 31 -0.3 29 -1.8 90 90 NNW 15 24 29.88 1012 10 16.0934 N/A
1:55 am 01:55 Cloudy 31 -0.5 29 -1.8 91 91 NNW 16 26 29.88 1012 10 16.0934 N/A
2:15 am 02:15 Cloudy 31 -0.5 29 -1.9 90 90 NW 16 26 29.88 1012 10 16.0934 N/A
2:35 am 02:35 Cloudy 31 -0.5 29 -1.8 91 91 NW 12 19 29.88 1012 10 16.0934 N/A
2:55 am 02:55 Cloudy 31 -0.5 28 -2 90 90 NNW 14 22 29.88 1012 10 16.0934 N/A
3:15 am 03:15 Cloudy 31 -0.6 28 -2 90 90 NNW 10 17 29.88 1012 10 16.0934 N/A
3:35 am 03:35 Cloudy 31 -0.8 28 -2.2 90 90 NNW 14 22 29.91 1013 10 16.0934 N/A
3:55 am 03:55 Cloudy 30 -0.9 28 -2.3 90 90 NW 12 19 29.91 1013 10 16.0934 N/A
4:15 am 04:15 Cloudy 30 -1 28 -2.3 91 91 NNW 9 15 29.91 1013 10 16.0934 N/A
4:35 am 04:35 Cloudy 30 -1.1 28 -2.5 90 90 NW 7 11 29.91 1013 10 16.0934 N/A
4:55 am 04:55 Cloudy 29 -1.4 27 -2.6 92 92 NW 10 17 29.88 1012 10 16.0934 N/A
5:15 am 05:15 Cloudy 29 -1.5 28 -2.5 93 93 NW 12 19 29.91 1013 10 16.0934 N/A
5:35 am 05:35 Cloudy 29 -1.7 27 -2.8 92 92 NW 7 11 29.94 1014 10 16.0934 N/A
5:55 am 05:55 Cloudy 29 -1.8 27 -2.8 93 93 WNW 10 17 29.94 1014 10 16.0934 N/A
6:15 am 06:15 Cloudy 28 -2 27 -3 93 93 NW 10 17 29.94 1014 10 16.0934 N/A
6:35 am 06:35 Cloudy 28 -2 27 -3 93 93 NW 7 11 29.97 1015 10 16.0934 N/A
6:55 am 06:55 Cloudy 28 -2.1 27 -3 94 94 NW 9 15 29.97 1015 10 16.0934 N/A
7:15 am 07:15 Cloudy 28 -2.1 27 -3 94 94 WNW 9 15 29.97 1015 10 16.0934 N/A
7:35 am 07:35 Cloudy 28 -2.1 27 -2.9 94 94 WNW 8 13 29.97 1015 10 16.0934 N/A
7:55 am 07:55 Cloudy 28 -2 27 -2.7 95 95 WNW 7 11 29.97 1015 10 16.0934 N/A
8:15 am 08:15 Cloudy 29 -1.9 27 -2.7 94 94 WNW 8 13 30 1016 10 16.0934 N/A
8:35 am 08:35 Cloudy 29 -1.8 27 -2.6 94 94 W 8 13 30 1016 10 16.0934 N/A
8:55 am 08:55 Cloudy 29 -1.8 27 -2.6 94 94 W 7 11 30 1016 10 16.0934 N/A
9:15 am 09:15 Cloudy 29 -1.8 27 -2.7 94 94 W 6 9 30 1016 10 16.0934 N/A
9:35 am 09:35 Mostly Cloudy 29 -1.7 27 -2.6 94 94 WNW 5 7 30 1016 7 11.26538 N/A
9:55 am 09:55 Partly Cloudy 30 -1.1 28 -2.2 92 92 WNW 8 13 30.03 1017 10 16.0934 N/A
10:15 am 10:15 Partly Cloudy 31 -0.8 28 -2.2 90 90 WNW 5 7 30 1016 10 16.0934 N/A
10:35 am 10:35 Sunny 31 -0.5 28 -2.2 88 88 W 3 6 29.97 1015 10 16.0934 N/A
10:55 am 10:55 Sunny 32 -0.2 28 -2.1 87 87 Calm 29.97 1015 10 16.0934 N/A
11:15 am 11:15 Sunny 32 -0.1 28 -2.1 87 87 SSW 3 6 29.97 1015 10 16.0934 N/A
11:35 am 11:35 Sunny 32 0.2 28 -2 85 85 SSW 5 7 29.97 1015 10 16.0934 N/A
11:55 am 11:55 Sunny 33 0.7 29 -1.8 84 84 S 5 7 29.97 1015 10 16.0934 N/A
12:15 pm 12:15 Sunny 35 1.6 30 -1 83 83 SSW 5 7 29.94 1014 10 16.0934 N/A
12:35 pm 12:35 Sunny 37 2.8 31 -0.5 79 79 SW 7 11 29.91 1013 10 16.0934 N/A
12:55 pm 12:55 Sunny 39 3.7 32 -0.2 76 76 SW 8 13 29.91 1013 10 16.0934 N/A
1:15 pm 13:15 Sunny 39 3.7 32 -0.1 76 76 SSW 9 15 29.88 1012 10 16.0934 N/A
1:35 pm 13:35 Sunny 40 4.5 32 -0.1 72 72 SSW 8 13 29.88 1012 10 16.0934 N/A
1:55 pm 13:55 Sunny 42 5.6 32 0 68 68 SW 9 15 29.85 1011 10 16.0934 N/A
2:15 pm 14:15 Sunny 44 6.5 32 0 64 64 WSW 10 17 29.85 1011 10 16.0934 N/A
2:35 pm 14:35 Sunny 45 7 32 0 61 61 WSW 7 11 29.83 1010 10 16.0934 N/A
2:55 pm 14:55 Sunny 46 7.6 33 0.3 60 60 WSW 8 13 29.8 1009 10 16.0934 N/A
3:15 pm 15:15 Sunny 47 8.2 32 -0.2 56 56 W 13 20 29.8 1009 10 16.0934 N/A
3:35 pm 15:35 Sunny 47 8.3 29 -1.7 50 50 WNW 12 19 29.8 1009 10 16.0934 N/A
3:55 pm 15:55 Sunny 46 7.7 29 -1.8 51 51 WNW 12 19 29.8 1009 10 16.0934 N/A
4:15 pm 16:15 Sunny 46 7.6 27 -2.6 49 49 WNW 13 20 29.8 1009 10 16.0934 N/A
4:35 pm 16:35 Sunny 44 6.5 29 -1.9 55 55 WNW 10 17 29.83 1010 10 16.0934 N/A
4:55 pm 16:55 Sunny 42 5.4 29 -1.7 61 61 WNW 9 15 29.83 1010 10 16.0934 N/A
5:15 pm 17:15 Clear 39 3.7 29 -1.8 68 68 WNW 9 15 29.85 1011 10 16.0934 N/A
5:35 pm 17:35 Clear 37 2.6 29 -1.9 73 73 WNW 9 15 29.85 1011 10 16.0934 N/A
5:55 pm 17:55 Clear 37 2.5 27 -2.7 69 69 WNW 9 15 29.88 1012 10 16.0934 N/A
6:15 pm 18:15 Clear 34 1.1 27 -3 74 74 WNW 8 13 29.91 1013 10 16.0934 N/A
6:35 pm 18:35 Clear 32 0.1 26 -3.3 78 78 W 7 11 29.88 1012 10 16.0934 N/A
6:55 pm 18:55 Clear 32 -0.1 26 -3.6 78 78 WNW 5 7 29.88 1012 10 16.0934 N/A
7:15 pm 19:15 Clear 32 0 26 -3.1 80 80 WNW 3 6 29.88 1012 10 16.0934 N/A
7:35 pm 19:35 Clear 30 -1 25 -3.8 82 82 WNW 3 6 29.88 1012 10 16.0934 N/A
7:55 pm 19:55 Clear 30 -1.3 25 -3.9 83 83 Calm 29.88 1012 10 16.0934 N/A
8:15 pm 20:15 Clear 28 -2 23 -4.9 81 81 Calm 29.91 1013 10 16.0934 N/A
8:35 pm 20:35 Clear 29 -1.9 25 -4.1 85 85 Calm 29.91 1013 10 16.0934 N/A
8:55 pm 20:55 Clear 26 -3.5 22 -5.8 84 84 Calm 29.91 1013 10 16.0934 N/A
9:15 pm 21:15 Clear 24 -4.3 22 -5.8 89 89 Calm 29.91 1013 10 16.0934 N/A
9:35 pm 21:35 Clear 27 -2.8 24 -4.2 90 90 SE 3 6 29.88 1012 10 16.0934 N/A
9:55 pm 21:55 Clear 26 -3.6 22 -5.4 88 88 ESE 5 7 29.88 1012 10 16.0934 N/A
10:15 pm 22:15 Clear 25 -3.9 22 -5.5 89 89 E 5 7 29.85 1011 10 16.0934 N/A
10:35 pm 22:35 Clear 25 -3.9 22 -5.3 90 90 Calm 29.85 1011 10 16.0934 N/A
10:55 pm 22:55 Clear 24 -4.2 22 -5.6 90 90 Calm 29.85 1011 10 16.0934 N/A
11:15 pm 23:15 Clear 23 -4.9 20 -6.4 89 89 NE 6 9 29.88 1012 10 16.0934 N/A
11:35 pm 23:35 Clear 23 -4.8 21 -6 91 91 E 5 7 29.88 1012 10 16.0934 N/A
11:55 pm 23:55 Clear 24 -4.7 21 -6 91 91 SE 5 7 29.83 1010 10 16.0934 N/A

Powered by AerisWeather